Time,TemperatureF,DewpointF,PressureIn,WindDirection,WindDirectionDegrees,WindSpeedMPH,WindSpeedGustMPH,Humidity,HourlyPrecipIn,Conditions,Clouds,dailyrainin,SoftwareType,DateUTC
2013-11-28 00:00:00,52.0,42.0,-100.00,NNE,28,2.0,-999.0,70,0.00,,,-99.99,,2013-11-28 08:00:00,
2013-11-28 00:42:00,52.0,42.0,-100.00,NNE,28,2.0,-999.0,70,0.00,,,-99.99,,2013-11-28 08:42:00,
2013-11-28 00:53:00,52.0,42.0,-100.00,NNE,28,2.0,-999.0,70,0.00,,,-99.99,,2013-11-28 08:53:00,
2013-11-28 01:00:00,50.0,43.0,-100.00,NNE,22,2.0,-999.0,78,0.00,,,-99.99,,2013-11-28 09:00:00,
2013-11-28 01:43:00,50.0,43.0,-100.00,NNE,22,2.0,-999.0,78,0.00,,,-99.99,,2013-11-28 09:43:00,
2013-11-28 01:53:00,50.0,43.0,-100.00,NNE,22,2.0,-999.0,78,0.00,,,-99.99,,2013-11-28 09:53:00,
2013-11-28 02:00:00,48.0,43.0,-100.00,ENE,58,2.0,-999.0,80,0.00,,,-99.99,,2013-11-28 10:00:00,
2013-11-28 02:43:00,48.0,43.0,-100.00,ENE,58,2.0,-999.0,80,0.00,,,-99.99,,2013-11-28 10:43:00,
2013-11-28 02:52:00,48.0,43.0,-100.00,ENE,58,2.0,-999.0,80,0.00,,,-99.99,,2013-11-28 10:52:00,
2013-11-28 03:00:00,48.0,42.0,-100.00,ENE,60,2.0,-999.0,80,0.00,,,-99.99,,2013-11-28 11:00:00,
2013-11-28 03:42:00,48.0,42.0,-100.00,ENE,60,2.0,-999.0,80,0.00,,,-99.99,,2013-11-28 11:42:00,
2013-11-28 03:52:00,48.0,42.0,-100.00,ENE,60,2.0,-999.0,80,0.00,,,-99.99,,2013-11-28 11:52:00,
2013-11-28 04:00:00,47.0,42.0,-100.00,East,93,2.0,-999.0,82,0.00,,,-99.99,,2013-11-28 12:00:00,
2013-11-28 04:42:00,47.0,42.0,-100.00,East,93,2.0,-999.0,82,0.00,,,-99.99,,2013-11-28 12:42:00,
2013-11-28 04:52:00,47.0,42.0,-100.00,East,93,2.0,-999.0,82,0.00,,,-99.99,,2013-11-28 12:52:00,
2013-11-28 05:00:00,46.0,41.0,-100.00,East,82,2.0,-999.0,81,0.00,,,-99.99,,2013-11-28 13:00:00,
2013-11-28 05:42:00,46.0,41.0,-100.00,East,82,2.0,-999.0,81,0.00,,,-99.99,,2013-11-28 13:42:00,
2013-11-28 05:52:00,46.0,41.0,-100.00,East,82,2.0,-999.0,81,0.00,,,-99.99,,2013-11-28 13:52:00,
2013-11-28 06:00:00,45.0,39.0,-100.00,ENE,64,1.0,-999.0,82,0.00,,,-99.99,,2013-11-28 14:00:00,
2013-11-28 06:42:00,45.0,39.0,-100.00,ENE,64,1.0,-999.0,82,0.00,,,-99.99,,2013-11-28 14:42:00,
2013-11-28 06:52:00,45.0,39.0,-100.00,ENE,64,1.0,-999.0,82,0.00,,,-99.99,,2013-11-28 14:52:00,
2013-11-28 07:00:00,47.0,41.0,-100.00,ESE,106,2.0,-999.0,79,0.00,,,-99.99,,2013-11-28 15:00:00,
2013-11-28 07:44:00,47.0,41.0,-100.00,ESE,106,2.0,-999.0,79,0.00,,,-99.99,,2013-11-28 15:44:00,
2013-11-28 07:54:00,47.0,41.0,-100.00,ESE,106,2.0,-999.0,79,0.00,,,-99.99,,2013-11-28 15:54:00,
2013-11-28 08:00:00,49.0,40.0,-100.00,East,82,2.0,-999.0,69,0.00,,,-99.99,,2013-11-28 16:00:00,
2013-11-28 08:43:00,49.0,40.0,-100.00,East,82,2.0,-999.0,69,0.00,,,-99.99,,2013-11-28 16:43:00,
2013-11-28 08:53:00,49.0,40.0,-100.00,East,82,2.0,-999.0,69,0.00,,,-99.99,,2013-11-28 16:53:00,
2013-11-28 09:00:00,57.0,40.0,-100.00,East,85,4.0,-999.0,53,0.00,,,-99.99,,2013-11-28 17:00:00,
2013-11-28 09:42:00,57.0,40.0,-100.00,East,85,4.0,-999.0,53,0.00,,,-99.99,,2013-11-28 17:42:00,
2013-11-28 09:52:00,57.0,40.0,-100.00,East,85,4.0,-999.0,53,0.00,,,-99.99,,2013-11-28 17:52:00,
2013-11-28 10:00:00,60.0,39.0,-100.00,East,89,3.0,-999.0,47,0.00,,,-99.99,,2013-11-28 18:00:00,
2013-11-28 10:42:00,60.0,39.0,-100.00,East,89,3.0,-999.0,47,0.00,,,-99.99,,2013-11-28 18:42:00,
2013-11-28 10:52:00,60.0,39.0,-100.00,East,89,3.0,-999.0,47,0.00,,,-99.99,,2013-11-28 18:52:00,
2013-11-28 11:00:00,63.0,39.0,-100.00,ESE,119,5.0,-999.0,41,0.00,,,-99.99,,2013-11-28 19:00:00,
2013-11-28 11:42:00,63.0,39.0,-100.00,ESE,119,5.0,-999.0,41,0.00,,,-99.99,,2013-11-28 19:42:00,
2013-11-28 11:52:00,63.0,39.0,-100.00,ESE,119,5.0,-999.0,41,0.00,,,-99.99,,2013-11-28 19:52:00,
2013-11-28 12:00:00,67.0,37.0,-100.00,ESE,110,5.0,-999.0,33,0.00,,,-99.99,,2013-11-28 20:00:00,
2013-11-28 12:42:00,67.0,37.0,-100.00,ESE,110,5.0,-999.0,33,0.00,,,-99.99,,2013-11-28 20:42:00,
2013-11-28 12:52:00,67.0,37.0,-100.00,ESE,110,5.0,-999.0,33,0.00,,,-99.99,,2013-11-28 20:52:00,
2013-11-28 13:00:00,71.0,38.0,-100.00,ESE,120,6.0,-999.0,30,0.00,,,-99.99,,2013-11-28 21:00:00,
2013-11-28 13:43:00,71.0,38.0,-100.00,ESE,120,6.0,-999.0,30,0.00,,,-99.99,,2013-11-28 21:43:00,
2013-11-28 13:53:00,71.0,38.0,-100.00,ESE,120,6.0,-999.0,30,0.00,,,-99.99,,2013-11-28 21:53:00,
2013-11-28 14:00:00,64.0,51.0,-100.00,SW,219,2.0,-999.0,62,0.00,,,-99.99,,2013-11-28 22:00:00,
2013-11-28 14:42:00,64.0,51.0,-100.00,SW,219,2.0,-999.0,62,0.00,,,-99.99,,2013-11-28 22:42:00,
2013-11-28 14:53:00,64.0,51.0,-100.00,SW,219,2.0,-999.0,62,0.00,,,-99.99,,2013-11-28 22:53:00,
2013-11-28 15:00:00,66.0,41.0,-100.00,SSE,164,5.0,-999.0,39,0.00,,,-99.99,,2013-11-28 23:00:00,
2013-11-28 15:42:00,66.0,41.0,-100.00,SSE,164,5.0,-999.0,39,0.00,,,-99.99,,2013-11-28 23:42:00,
2013-11-28 15:52:00,66.0,41.0,-100.00,SSE,164,5.0,-999.0,39,0.00,,,-99.99,,2013-11-28 23:52:00,
2013-11-28 16:00:00,66.0,41.0,-100.00,SSE,159,3.0,-999.0,39,0.00,,,-99.99,,2013-11-29 00:00:00,
2013-11-28 16:42:00,66.0,41.0,-100.00,SSE,159,3.0,-999.0,39,0.00,,,-99.99,,2013-11-29 00:42:00,
2013-11-28 16:52:00,66.0,41.0,-100.00,SSE,159,3.0,-999.0,39,0.00,,,-99.99,,2013-11-29 00:52:00,
2013-11-28 17:00:00,64.0,44.0,-100.00,ESE,108,1.0,-999.0,48,0.00,,,-99.99,,2013-11-29 01:00:00,
2013-11-28 17:42:00,64.0,44.0,-100.00,ESE,108,1.0,-999.0,48,0.00,,,-99.99,,2013-11-29 01:42:00,
2013-11-28 17:52:00,64.0,44.0,-100.00,ESE,108,1.0,-999.0,48,0.00,,,-99.99,,2013-11-29 01:52:00,
2013-11-28 18:00:00,60.0,48.0,-100.00,North,356,1.0,-999.0,65,0.00,,,-99.99,,2013-11-29 02:00:00,
2013-11-28 18:42:00,60.0,48.0,-100.00,North,356,1.0,-999.0,65,0.00,,,-99.99,,2013-11-29 02:42:00,
2013-11-28 18:52:00,60.0,48.0,-100.00,North,356,1.0,-999.0,65,0.00,,,-99.99,,2013-11-29 02:52:00,
2013-11-28 19:00:00,58.0,49.0,-100.00,North,355,1.0,-999.0,72,0.00,,,-99.99,,2013-11-29 03:00:00,
2013-11-28 19:43:00,58.0,49.0,-100.00,North,355,1.0,-999.0,72,0.00,,,-99.99,,2013-11-29 03:43:00,
2013-11-28 19:53:00,58.0,49.0,-100.00,North,355,1.0,-999.0,72,0.00,,,-99.99,,2013-11-29 03:53:00,
2013-11-28 20:00:00,57.0,52.0,-100.00,ENE,78,0.0,-999.0,81,0.00,,,-99.99,,2013-11-29 04:00:00,
2013-11-28 20:43:00,57.0,52.0,-100.00,ENE,78,0.0,-999.0,81,0.00,,,-99.99,,2013-11-29 04:43:00,
2013-11-28 20:52:00,57.0,52.0,-100.00,ENE,78,0.0,-999.0,81,0.00,,,-99.99,,2013-11-29 04:52:00,
2013-11-28 21:00:00,56.0,48.0,-100.00,NE,48,1.0,-999.0,74,0.00,,,-99.99,,2013-11-29 05:00:00,
2013-11-28 21:43:00,56.0,48.0,-100.00,NE,48,1.0,-999.0,74,0.00,,,-99.99,,2013-11-29 05:43:00,
2013-11-28 21:53:00,56.0,48.0,-100.00,NE,48,1.0,-999.0,74,0.00,,,-99.99,,2013-11-29 05:53:00,
2013-11-28 22:00:00,56.0,47.0,-100.00,SW,219,3.0,-999.0,69,0.00,,,-99.99,,2013-11-29 06:00:00,
2013-11-28 22:42:00,56.0,47.0,-100.00,SW,219,3.0,-999.0,69,0.00,,,-99.99,,2013-11-29 06:42:00,
2013-11-28 22:52:00,56.0,47.0,-100.00,SW,219,3.0,-999.0,69,0.00,,,-99.99,,2013-11-29 06:52:00,
2013-11-28 23:00:00,56.0,48.0,-100.00,NNE,23,1.0,-999.0,74,0.00,,,-99.99,,2013-11-29 07:00:00,
2013-11-28 23:42:00,56.0,48.0,-100.00,NNE,23,1.0,-999.0,74,0.00,,,-99.99,,2013-11-29 07:42:00,
2013-11-28 23:52:00,56.0,48.0,-100.00,NNE,23,1.0,-999.0,74,0.00,,,-99.99,,2013-11-29 07:52:00,